Regional Weather Roundup
Issued by NWS

Home | Current Version | Previous Version | Graphics & Text | Print | Product List | Glossary On
Versions: 1 2 3 4 5 6 7 8 9 10 11 12 13 14 15 16 17 18 19 20 21 22 23 24 25 26 27 28 29 30 31 32 33 34 35 36 37 38 39 40 41 42 43 44 45 46 47 48 49 50
000
ASUS43 KTOP 012008
RWRKS

WEATHER ROUNDUP FOR KANSAS
NATIONAL WEATHER SERVICE GOODLAND KS
300 PM CDT WED JUL 01 2015

NOTE:  "FAIR" INDICATES FEW OR NO CLOUDS BELOW 12,000 FEET WITH NO
SIGNIFICANT WEATHER AND/OR OBSTRUCTIONS TO VISIBILITY.

KSZ001>006-013>018-027>032-041>047-012100-
NORTHWEST KANSAS

CITY           SKY/WX    TMP DP  RH WIND       PRES   REMARKS
GOODLAND       SUNNY     95  51  22 N16G24    29.99F
HAYS           SUNNY     97  61  30 N20       29.85R HX  97
HILL CITY      SUNNY     97  63  32 NE15G24   29.89S HX  98
RUSSELL        MOSUNNY   97  61  30 N13       29.82R HX  97
$$

KSZ061>065-074>080-084>089-012100-
SOUTHWEST KANSAS

CITY           SKY/WX    TMP DP  RH WIND       PRES   REMARKS
DODGE CITY     SUNNY     97  58  27 N14G23    29.87S HX  96
ELKHART          N/A     99  56  23 MISG        N/A  HX  97
GARDEN CITY    SUNNY     97  56  25 NE16G26   29.90S HX  95
GREAT BEND     MOSUNNY   95  61  31 NE8       29.82F HX  95
LIBERAL        PTSUNNY   91  61  35 E5        29.93S
PRATT          MOSUNNY   95  54  24 NW8       29.84S
$$

KSZ066>073-081>083-090>101-012100-
SOUTHEAST KANSAS

CITY           SKY/WX    TMP DP  RH WIND       PRES   REMARKS
CHANUTE        LGT RAIN  86  73  65 S17G23    29.83R
COFFEYVILLE    PTSUNNY   91  75  59 S14       29.84F HX 101
HUTCHINSON     PTSUNNY   92  65  40 N6        29.79S
MEDICINE LODGE   N/A    100  61  27 W12       29.79S HX 101
PARSONS        CLOUDY    87  75  67 S9        29.86S HX  96
WICHITA INTL   LGT RAIN  91  68  46 SW6       29.78F HX  95
WICHITA JABRA  CLOUDY    90  66  45 S7        29.79F
WICHITA MCCONL CLOUDY    90  68  48 S7        29.79F
WINFIELD       PTSUNNY  100  61  27 S17G28    29.80F HX 101
$$

KSZ007>012-019>026-033>040-048>060-102>105-012100-
NORTHEAST KANSAS

CITY           SKY/WX    TMP DP  RH WIND       PRES   REMARKS
CONCORDIA      SUNNY     90  67  46 E10       29.82R
EMPORIA        CLOUDY    86  70  58 SE5       29.78F
LAWRENCE       MOSUNNY   86  73  65 S9        29.80F
MANHATTAN      MOSUNNY   94  65  38 VRB3      29.77F HX  96
MARYSVILLE     MOSUNNY   88  72  58 SE7       29.82S
OLATHE IND     MOSUNNY   84  73  69 S15       29.83S
OLATHE EXE     MOSUNNY   83  74  74 S12G20    29.83S
SALINA         PTSUNNY   94  61  33 N5        29.79S
TOPEKA BILLARD PTSUNNY   88  73  61 S10       29.79F HX  95
TOPEKA FORBES  PTSUNNY   91  71  51 S13       29.79F HX  97
$$



USA.gov is the U.S. government's official web portal to all federal, state and local government web resources and services.